Preview of NWS' New Version of Forecast
This preview is not operational and should not be used for support decisions.

Regional Weather Roundup (RWR)

Issued by Austin/San Antonio, TX (EWX)

                            
000
ASUS44 KEWX 200710
RWREWX
SOUTH TEXAS REGIONAL WEATHER ROUNDUP
NATIONAL WEATHER SERVICE AUSTIN/SAN ANTONIO TX
200 AM CDT MON MAY 20 2019

NOTE: "FAIR" INDICATED FEW OR NO CLOUDS BELOW 12,000 FEET WITH NO
SIGNIFICANT WEATHER AND/OR OBSTRUCTIONS TO VISIBILITY.

* - THESE STATIONS ARE NOT NWS OR FAA STATIONS...AND ARE NOT SUBJECT
    TO NWS AND FAA QUALITY CONTROL.
 
TXZ171-172-183>190-200800-
TEXAS HILL COUNTRY AND EDWARDS PLATEAU
  
CITY           SKY/WX    TMP DP  RH WIND       PRES   REMARKS
JUNCTION       MOCLDY    75  71  87 SE3       29.87S                  
*LLANO         PTCLDY    75  73  94 SE8       29.88F                  
BURNET         CLOUDY    76  70  82 S13G21    29.88F                  
*HORSESHOE BAY CLOUDY    77  72  83 S5        29.87F                  
*KERRVILLE     CLOUDY    76  72  85 SE10      29.88F                  
*FREDERICKSBRG CLOUDY    74  68  80 S10       29.89S                  
*ROCKSPRINGS   CLOUDY    73  70  88 SE14G23   29.92S                  
*BOERNE STAGE  CLOUDY    73  72  94 CALM      29.89F                  
*CASTROVILLE   CLOUDY    77  74  91 SE7       29.86F                  
HONDO          CLOUDY    77  73  87 SE10      29.85F                  
*UVALDE        CLOUDY    76  74  95 E14       29.84F                  
DEL RIO        CLOUDY    79  72  79 E13G21    29.77F                  
LAUGHLIN AFB   PTCLDY    77  73  86 SE14      29.79S                  
CARRIZO SPRGS  CLOUDY    79  77  94 SE8       29.80F                  
*FAITH RANCH   CLOUDY    81  75  83 SE10      29.80F                  
$$

TXZ173-191>194-202-209-217>225-228-200800-
CENTRAL AND SOUTH CENTRAL TEXAS
  
CITY           SKY/WX    TMP DP  RH WIND       PRES   REMARKS
GEORGETOWN     CLOUDY    76  73  91 S12       29.88F                  
AUSTIN/BERGSTM CLOUDY    78  74  87 S8        29.86F                  
AUSTIN/MABRY   CLOUDY    77  72  84 S8        29.87F                  
*AUSTIN/EXEC   CLOUDY    75  73  94 S8        29.87F FOG              
*LAGO VISTA    CLOUDY    74  72  92 S7G16     29.88F                  
SAN MARCOS     CLOUDY    77  74  90 SE12G17   29.87F                  
NEW BRAUNFELS  CLOUDY    78  74  87 SE12      29.85F                  
RANDOLPH AFB   CLOUDY    77  75  93 SE9       29.86F                  
PT SAN ANTONIO MOCLDY    78  74  88 E8        29.83F                  
SAN ANTONIO    CLOUDY    77  73  87 SE13      29.86F                  
STINSON FIELD  CLOUDY    79  73  82 E12       29.83F                  
*LA GRANGE     CLOUDY    79  79 100 SE5       29.85F                  
*GIDDINGS      CLOUDY    78  76  93 S8        29.88F                  
*GONZALES      CLOUDY    79  77  95 SE7       29.85F                  
$$

TXZ163>164-176>182-195>201-210>213-226-227-235-200800-
SOUTHEAST TEXAS
  
CITY           SKY/WX    TMP DP  RH WIND       PRES   REMARKS
COLLEGE STN    MOCLDY    76  74  93 SE7       29.87F                  
*BRYAN         MOCLDY    73  73 100 SE3       29.89F                  
*CALDWELL      FOG       77  74  90 SE10G16   29.88S VSB<1/4          
*CROCKETT        N/A     72  72 100 SE3       29.92F                  
*BRENHAM       CLOUDY    78  78  99 SE8       29.87F FOG              
HUNTSVILLE     CLEAR     78  73  84 S6        29.88F                  
CONROE         CLOUDY    78  75  90 SE6       29.89F                  
HOUSTON BUSH   CLOUDY    79  77  94 S7        29.88F                  
HOUSTON HOBBY  MOCLDY    80  75  84 S12G21    29.88F                  
*HOUSTON SW AP CLOUDY    78  76  95 SE5       29.88F                  
PEARLAND       CLOUDY    80  76  87 S9        29.89F                  
HOUSTON HOOKS  CLOUDY    78  74  87 SE6       29.88F                  
ELLINGTON FLD  CLOUDY    81  75  83 S12         N/A                   
SUGAR LAND     CLOUDY    79  77  94 SE10      29.87F                  
*HOUSTON EXEC  FAIR      79  77  94 SE7       29.88F FOG              
*CLEVELAND MUN CLOUDY    76  76 100 S3        29.91S                  
*WHARTON       CLOUDY    78  75  90 SE8       29.87F                  
*COLUMBUS      CLOUDY    77  74  88 SE6       29.88S                  
*EAGLE LAKE    CLOUDY    77  76  96 SE6       29.86F FOG              
$$

TXZ214>216-236>238-200800-
THE UPPER TEXAS COAST
  
CITY           SKY/WX    TMP DP  RH WIND       PRES   REMARKS
*ORANGE        CLOUDY    77  77  98 SE3       29.94S                  
PORT ARTHUR    CLOUDY    79  74  84 E8        29.91S                  
GALVESTON      CLOUDY    79  76  90 S17       29.89F                  
ANGLETON       CLOUDY    79  75  87 SE13      29.87F                  
*BAY CITY      CLOUDY    79  77  94 SE10G17   29.87F                  
PALACIOS       CLOUDY    81  79  94 SE15      29.85F FOG     HX  90   
$$

TXZ229>234-239>247-200800-
TEXAS COASTAL BEND AND RIO GRANDE PLAINS
  
CITY           SKY/WX    TMP DP  RH WIND       PRES   REMARKS
VICTORIA       CLOUDY    80  76  87 SE13      29.85F                  
*BEEVILLE      CLOUDY    82  76  83 SE10      29.83F HX  90           
ROCKPORT       CLOUDY    80  77  90 SE15      29.83F FOG              
*PORT ARANSAS  CLOUDY    80  78  94 SE14      29.85F FOG              
*PORT LAVACA   CLOUDY    82  79  91 SE10      29.86S FOG     HX  91   
*INGLESIDE     CLOUDY    81  78  90 SE10      29.83F HX  90           
CORPUS CHRISTI CLOUDY    82  78  88 SE15      29.82F HX  91           
CORPUS NAS       N/A     85  79  82 SE14      29.82F HX  98           
*ROBSTOWN      CLOUDY    81  77  89 SE10      29.82F                  
ALICE          CLOUDY    81  77  88 SE12      29.80F FOG              
KINGSVILLE NAS CLOUDY    82  78  88 SE12      29.81F HX  91           
COTULLA        CLOUDY    79  76  90 E10       29.81F                  
LAREDO         CLOUDY    82  76  81 SE16      29.78F                  
$$

TXZ248>255-200800-
DEEP SOUTH TEXAS
  
CITY           SKY/WX    TMP DP  RH WIND       PRES   REMARKS
BROWNSVILLE    CLOUDY    83  80  91 SE10      29.82F HX  95           
PORT ISABEL    CLOUDY    82  77  84 SE13      29.81F HX  90           
HARLINGEN      CLOUDY    82  78  88 SE14      29.81F HX  91           
*HEBBRONVILLE  CLOUDY    78  75  88 SE12      29.82F FOG              
MCALLEN        CLOUDY    82  78  88 SE13      29.81F HX  91           
*WESLACO       CLOUDY    81  76  85 SE9       29.80F                  
FALFURRIAS     CLOUDY    81  77  88 SE7       29.81F                  
EDINBURG       CLOUDY    82  78  86 SE9       29.80F HX  92           
*ZAPATA        CLOUDY    82  74  76 SE9G16    29.80F                  
$$

TXZ213>215-236>238-242>244-246-247-251-254-255-200800-
CMAN STATIONS
  
STATION/POSITION TIME  TEMP    WIND        PRES    WAVE
                       AIR SEA DIR/SP/G            HT/PER
                 (UTC) (F)     (DEG/KT/KT) (MB)    (FT/S)
SABINE PASS      0642   78 80  150/ 12/ 16 1014.3
SEA RIM ST PARK  0700   78     160/ 10/ 13 1012.6
NORTH JETTY/GLS  0642   83 80  170/ 18/ 21 1011.0
EAGLE POINT      0642   79 82  180/ 13/ 16 1011.2
MORGANS POINT    0642   80 80  150/  8/ 11 1012.1
PORT O'CONNOR    0636   79 82  130/ 17/ 19 1010.4
PORT ARANSAS     0700   80 80  130/ 15/ 17 1009.9
MALAQUITE BEACH  0636   81 83  110/ 15/ 18 1009.6
BAFFIN BAY       0636   81 84  110/ 12/ 18 1010.1
PORT ISABEL      0636   81 83  130/  7/ 12 1010.2
$$